Wind_Speed
10 9 9 9 10 9 8 8 8 8 8 8 7 6 6 6 6 6 7 7 7 6 6 7 7 7 7 8 7 7 7 7 8 8 8 7 7 7 7 8 9 9 9 9
11 11 11 11 11 10 9 9 9 8 8 7 7 6 6 6 6 6 6 6 6 7 7 7 8 8 7 7 7 7 8 8 7 6 7 7 7 7 7 8 8 9 9 9
12 12 13 12 12 12 11 9 8 8 8 7 7 7 6 7 6 6 6 7 6 6 7 7 7 8 7 6 6 7 8 6 5 6 6 6 7 7 8 8 9 9 10 10
13 13 13 13 12 12 11 10 9 8 8 8 7 7 7 7 7 6 7 7 7 7 7 7 7 7 7 7 6 7 7 6 6 6 6 7 8 8 8 8 9 9 10 11
14 14 15 14 13 12 11 10 9 9 8 8 8 8 8 8 8 7 7 8 7 8 7 7 7 8 8 7 7 6 6 6 6 7 7 8 9 9 9 8 9 9 10 11
15 15 15 14 13 11 11 11 10 10 9 9 8 8 8 8 8 8 8 8 8 8 8 8 8 8 8 8 8 7 7 6 7 7 8 9 10 10 9 9 10 10 12 12
15 15 15 13 13 12 12 12 11 11 11 10 10 10 9 9 9 8 8 8 8 8 8 8 8 9 9 9 8 8 7 8 8 9 9 9 10 10 11 11 11 12 12 12
16 16 16 14 14 13 13 13 13 13 12 12 11 11 11 10 10 9 9 9 9 8 8 8 9 9 9 9 8 8 8 8 9 10 10 10 10 11 12 12 13 13 13 12
17 17 16 15 15 14 14 13 13 13 13 12 12 12 12 12 11 10 10 10 9 8 9 9 9 9 9 8 8 8 9 9 10 10 11 11 11 12 13 13 13 13 13 13
17 17 17 16 15 15 14 14 14 14 14 14 14 13 13 12 12 11 10 10 10 9 9 9 9 9 9 8 9 9 10 10 10 11 11 11 12 13 13 13 12 12 12 12
18 18 17 17 17 16 15 15 15 14 14 15 15 14 14 13 12 12 11 11 10 9 9 10 10 9 9 9 9 9 10 10 10 10 10 11 12 12 12 12 11 11 11 12
18 18 18 17 17 17 16 16 16 16 15 15 16 16 15 15 14 13 12 12 11 10 10 11 11 10 10 10 10 10 11 11 10 11 11 12 12 12 12 11 11 11 11 12
18 18 18 18 18 17 16 16 15 15 15 15 16 16 16 16 16 15 14 13 12 12 12 12 11 11 11 11 11 11 11 11 11 11 12 12 12 13 12 11 11 11 12 12
19 19 19 18 17 17 17 16 16 16 16 15 15 16 16 16 17 17 16 15 14 14 13 13 12 12 12 12 12 11 12 12 12 11 12 12 12 12 12 12 12 12 12 13
21 20 20 20 19 19 19 18 18 17 17 17 17 17 17 17 17 16 17 17 16 15 15 14 13 13 13 13 13 13 12 12 12 11 11 12 12 12 12 12 12 13 13 14
22 22 22 22 21 21 20 20 19 19 19 19 19 19 18 18 18 17 17 17 17 16 16 16 14 13 13 13 13 13 12 12 12 11 11 12 12 12 12 13 13 13 14 15
24 23 23 23 23 23 22 21 21 21 21 21 21 21 20 20 19 19 18 18 18 17 17 17 16 14 13 13 13 13 13 13 12 12 12 12 12 12 13 13 13 14 14 15
25 25 24 24 24 24 24 23 23 23 22 22 22 22 21 21 20 20 19 18 19 18 18 18 17 16 15 14 13 13 13 13 13 12 12 12 12 13 13 13 14 14 15 15
26 26 26 25 25 24 24 24 24 24 24 24 24 24 23 23 22 21 20 20 20 20 20 19 19 18 17 16 15 14 14 14 14 14 13 13 13 13 13 13 14 15 15 15
25 25 25 25 25 25 25 25 25 25 25 25 25 24 24 24 24 23 23 22 22 22 21 21 20 19 18 18 17 17 16 16 16 15 15 14 13 13 13 13 14 15 16 16
26 25 25 25 25 25 25 25 24 24 24 24 24 25 24 25 25 25 24 24 24 24 23 22 21 20 19 19 19 18 18 17 17 16 16 15 15 15 15 15 15 15 16 17
26 25 26 26 26 26 26 25 25 25 24 25 24 24 24 25 25 25 24 24 24 25 24 23 23 22 21 20 20 19 19 18 17 17 17 16 16 16 16 16 16 16 17 18
26 26 26 26 26 26 26 26 26 25 25 25 25 24 24 24 25 25 24 24 24 25 25 25 24 23 22 21 20 20 19 19 18 17 17 17 17 17 17 17 17 17 18 18
26 26 27 27 26 26 26 26 26 25 26 25 25 25 24 24 25 25 24 24 24 24 25 25 24 24 23 22 21 20 20 19 19 19 19 18 18 18 18 18 17 18 18 18
27 27 27 27 26 26 26 25 25 25 25 24 24 24 24 24 24 24 24 24 24 24 23 23 23 23 23 22 21 21 21 20 20 20 20 20 19 19 19 18 18 19 19 19
27 27 26 26 26 26 25 24 24 24 23 23 23 23 23 23 23 23 24 24 24 23 23 23 23 23 23 23 22 22 21 21 21 21 21 21 21 20 19 19 19 19 20 20
27 26 26 25 25 25 24 23 23 23 23 22 22 22 23 23 23 23 23 24 23 23 23 22 22 23 23 23 23 23 23 23 23 22 22 22 22 22 22 22 22 22 21 22
Wind_Direction
301 301 301 298 302 304 303 303 301 301 296 297 294 290 282 282 286 291 294 298 301 305 312 314 311 310 306 306 305 305 309 311 311 310 314 310 304 302 299 299 301 299 295 291
297 297 299 298 297 297 295 292 297 300 298 294 285 284 284 280 282 292 299 300 302 306 309 313 314 310 307 306 306 303 306 304 308 316 315 314 309 307 307 305 306 304 304 298
294 295 295 293 294 296 293 287 290 295 296 292 280 280 283 284 286 296 301 303 303 304 310 314 315 314 312 314 310 305 308 308 307 312 312 317 321 320 316 309 307 310 311 306
289 291 288 288 291 290 286 282 284 286 288 288 287 284 282 283 287 293 297 298 302 305 305 308 311 313 313 313 313 313 315 311 305 312 319 323 323 320 317 316 313 314 313 310
285 287 288 286 284 282 282 279 279 279 281 283 282 279 278 283 289 292 290 290 295 298 300 303 306 311 312 308 309 314 319 318 314 314 316 319 319 317 318 318 320 321 319 315
280 281 282 284 282 280 279 279 278 276 274 275 277 277 278 283 286 289 290 290 288 292 293 297 301 309 309 303 305 307 312 313 315 316 315 315 315 314 316 317 317 317 317 315
276 276 277 280 279 277 275 275 275 273 273 272 273 275 275 276 276 280 285 285 282 286 290 293 299 306 307 302 303 303 305 309 312 312 312 314 316 316 316 315 314 315 316 315
273 271 272 275 274 273 274 275 273 270 271 271 272 273 273 270 269 270 277 279 278 279 285 291 297 299 303 304 304 304 305 308 311 312 311 313 316 317 315 313 313 315 316 316
270 268 270 271 271 271 271 272 269 266 268 270 271 273 271 267 266 268 274 277 276 276 281 287 293 296 299 300 302 304 305 308 311 311 310 309 311 314 315 314 313 314 313 312
267 267 268 269 271 272 270 273 271 267 267 270 270 270 268 264 264 265 268 271 272 272 279 282 289 296 298 297 304 305 307 307 310 311 310 311 312 314 317 317 314 313 312 311
268 267 267 269 273 274 273 273 274 274 273 272 270 267 265 261 260 262 262 266 268 267 274 281 286 292 295 297 304 306 306 307 310 312 311 312 315 318 320 320 317 314 314 315
270 268 268 270 273 273 272 273 274 273 271 271 270 266 261 259 258 259 258 263 266 266 271 277 282 288 293 296 301 304 305 306 307 309 309 310 314 316 316 317 315 314 315 316
268 268 268 269 270 271 271 273 275 273 270 268 267 265 261 259 258 257 254 258 264 268 270 275 279 284 289 293 296 301 303 304 305 306 308 312 314 316 316 316 315 313 313 313
265 266 266 267 269 270 270 272 273 272 268 266 265 264 262 261 259 256 254 256 260 264 267 271 275 279 285 289 292 297 300 301 302 304 307 310 311 312 313 312 312 313 314 313
262 263 264 264 266 268 268 270 271 270 269 267 266 264 263 262 260 258 255 255 257 261 264 267 269 273 279 285 289 294 296 297 296 297 303 307 310 311 312 314 314 315 315 314
260 261 263 263 263 266 268 269 268 268 267 265 265 265 265 263 259 256 256 255 254 257 261 264 265 268 273 281 287 292 293 294 294 295 298 303 308 310 310 312 313 315 318 320
258 259 262 263 264 264 267 268 266 266 266 265 266 265 264 262 259 255 254 254 252 255 259 262 263 264 270 275 281 287 292 294 293 291 291 295 301 307 309 313 317 320 321 322
256 258 260 262 263 264 266 265 264 264 266 265 264 263 264 261 257 253 253 255 254 255 257 259 258 259 266 271 276 282 289 293 295 297 299 300 302 307 308 311 315 319 321 322
258 258 259 261 262 263 264 265 264 264 265 265 263 262 262 260 257 253 252 254 255 256 256 256 257 259 263 268 272 276 281 286 288 292 296 298 297 300 305 310 313 317 318 321
258 259 259 260 260 261 262 264 265 265 265 264 261 259 260 258 255 253 253 252 253 254 255 255 256 257 260 264 268 272 277 281 284 287 288 290 293 296 299 304 309 315 319 320
259 258 258 259 259 261 262 263 263 265 265 264 261 260 259 257 255 254 253 252 251 252 252 252 254 257 260 263 267 269 273 276 280 283 285 288 291 293 295 299 303 309 314 316
260 259 259 260 260 262 263 264 266 267 266 264 263 261 259 257 255 254 254 254 252 250 252 253 254 257 259 262 264 266 270 273 277 279 282 285 288 291 294 297 301 304 308 311
259 259 259 261 263 264 264 265 267 268 267 266 263 261 259 257 255 254 254 254 252 252 253 253 254 255 257 259 262 264 268 271 273 276 279 282 285 288 292 294 297 301 304 308
256 258 259 260 261 261 262 264 266 266 266 265 264 261 258 257 255 254 253 251 251 251 252 251 252 254 256 258 260 263 266 269 271 273 276 278 282 287 290 291 294 297 300 304
257 256 257 259 259 260 261 263 263 264 264 263 262 261 258 256 254 252 250 249 250 249 249 250 250 253 255 256 257 259 262 265 268 271 273 276 280 285 287 288 291 295 298 300
255 255 255 257 257 258 260 261 260 260 260 259 258 258 256 254 254 251 248 247 249 248 248 248 248 251 255 255 255 257 259 262 265 268 272 276 279 282 285 287 290 293 296 298
254 254 254 256 257 257 258 259 258 257 257 257 256 256 255 253 252 250 247 247 248 248 247 247 248 250 253 254 255 257 260 262 264 267 271 274 277 278 281 284 287 290 293 295
Height
5813 5811 5811 5810 5809 5808 5807 5806 5806 5805 5804 5802 5801 5801 5800 5800 5800 5800 5799 5798 5798 5797 5797 5796 5795 5794 5793 5792 5790 5789 5788 5786 5785 5783 5782 5780 5779 5778 5776 5775 5774 5773 5772 5770
5810 5809 5808 5807 5806 5805 5805 5804 5803 5802 5801 5800 5799 5799 5799 5798 5798 5798 5797 5797 5796 5796 5795 5794 5793 5792 5791 5789 5788 5787 5786 5784 5783 5781 5780 5779 5777 5776 5775 5773 5772 5770 5769 5768
5808 5806 5805 5804 5804 5803 5802 5801 5801 5800 5800 5798 5798 5797 5797 5797 5797 5796 5796 5795 5794 5794 5793 5792 5791 5790 5789 5788 5786 5785 5783 5782 5781 5780 5778 5777 5775 5774 5773 5771 5770 5768 5766 5765
5804 5804 5802 5804 5801 5800 5799 5798 5798 5797 5797 5796 5796 5796 5795 5795 5795 5794 5794 5793 5793 5792 5791 5790 5790 5788 5787 5786 5785 5783 5782 5780 5779 5778 5777 5775 5774 5772 5771 5769 5767 5765 5764 5762
5801 5800 5799 5799 5797 5797 5796 5796 5795 5795 5795 5794 5794 5794 5793 5793 5793 5792 5792 5791 5791 5790 5790 5789 5788 5787 5786 5784 5783 5782 5780 5779 5778 5776 5775 5773 5772 5770 5768 5767 5765 5763 5761 5759
5797 5796 5796 5796 5795 5794 5794 5793 5793 5792 5792 5792 5792 5792 5792 5791 5790 5790 5789 5789 5789 5788 5788 5787 5786 5785 5784 5783 5782 5780 5779 5777 5776 5774 5773 5771 5769 5768 5766 5764 5762 5760 5758 5756
5792 5791 5791 5792 5791 5791 5792 5791 5790 5789 5789 5789 5789 5789 5789 5788 5788 5788 5787 5787 5787 5786 5785 5785 5784 5783 5782 5781 5780 5778 5777 5775 5774 5772 5770 5769 5767 5765 5763 5761 5759 5757 5755 5753
5788 5787 5789 5787 5787 5788 5788 5786 5786 5786 5786 5786 5786 5786 5785 5785 5785 5785 5785 5784 5784 5784 5783 5783 5782 5781 5780 5779 5777 5776 5775 5773 5772 5770 5768 5766 5764 5762 5760 5758 5756 5754 5752 5750
5784 5785 5783 5782 5782 5782 5782 5782 5782 5782 5782 5782 5782 5782 5782 5782 5782 5782 5782 5782 5781 5781 5781 5780 5779 5778 5778 5776 5775 5773 5772 5771 5769 5767 5765 5763 5761 5759 5757 5755 5753 5750 5748 5746
5778 5778 5778 5777 5777 5777 5777 5777 5777 5777 5778 5778 5778 5778 5778 5778 5778 5778 5778 5778 5778 5778 5778 5777 5777 5776 5775 5774 5772 5771 5769 5768 5766 5764 5762 5760 5758 5756 5754 5751 5749 5747 5745 5743
5772 5773 5772 5772 5772 5773 5773 5773 5773 5773 5773 5773 5773 5773 5773 5774 5774 5774 5775 5775 5775 5775 5774 5774 5774 5773 5772 5771 5770 5768 5767 5765 5763 5761 5760 5758 5756 5753 5751 5749 5746 5744 5742 5740
5767 5767 5768 5768 5767 5767 5767 5767 5767 5768 5768 5768 5768 5768 5768 5769 5769 5770 5770 5771 5771 5771 5771 5771 5770 5770 5769 5768 5767 5765 5764 5762 5760 5759 5757 5755 5753 5750 5748 5746 5744 5742 5740 5737
5761 5761 5762 5762 5762 5762 5761 5762 5762 5762 5762 5762 5762 5762 5763 5763 5764 5765 5766 5766 5767 5767 5767 5767 5766 5766 5765 5764 5763 5762 5760 5759 5757 5755 5754 5752 5750 5747 5745 5743 5741 5739 5737 5734
5755 5755 5756 5756 5756 5756 5756 5756 5756 5756 5756 5757 5757 5757 5758 5758 5759 5759 5760 5761 5762 5762 5763 5763 5762 5762 5761 5760 5759 5758 5757 5755 5753 5752 5750 5748 5746 5744 5742 5740 5738 5736 5734 5731
5748 5749 5749 5750 5750 5750 5750 5750 5750 5751 5751 5751 5751 5752 5752 5753 5753 5754 5755 5755 5756 5757 5758 5758 5758 5758 5757 5756 5755 5754 5753 5751 5750 5749 5747 5745 5743 5741 5739 5737 5734 5732 5730 5728
5741 5741 5742 5743 5743 5743 5744 5744 5744 5745 5745 5745 5745 5746 5746 5747 5747 5748 5749 5750 5751 5752 5752 5753 5753 5753 5752 5752 5751 5750 5749 5748 5746 5745 5743 5742 5740 5738 5736 5734 5731 5729 5727 5724
5733 5734 5734 5735 5736 5736 5737 5737 5737 5738 5738 5738 5739 5739 5740 5740 5741 5742 5743 5744 5744 5746 5746 5747 5747 5747 5747 5747 5746 5746 5745 5743 5742 5741 5739 5738 5736 5734 5732 5730 5728 5726 5724 5721
5724 5725 5726 5727 5728 5728 5729 5729 5730 5730 5731 5731 5732 5732 5733 5733 5734 5735 5736 5737 5738 5739 5740 5741 5741 5741 5742 5742 5741 5741 5740 5739 5738 5737 5736 5734 5732 5731 5729 5727 5725 5723 5720 5717
5716 5717 5718 5719 5719 5720 5721 5721 5722 5722 5723 5723 5724 5725 5725 5726 5727 5728 5729 5730 5731 5732 5734 5734 5735 5735 5736 5736 5736 5736 5735 5735 5734 5733 5732 5730 5729 5727 5725 5724 5722 5719 5717 5714
5708 5709 5709 5710 5711 5712 5713 5713 5714 5714 5714 5715 5715 5716 5717 5718 5719 5720 5721 5722 5724 5725 5727 5728 5728 5729 5730 5730 5731 5731 5730 5730 5729 5728 5727 5726 5725 5723 5722 5720 5718 5716 5713 5711
5700 5701 5701 5702 5703 5704 5705 5705 5705 5706 5706 5706 5707 5708 5709 5710 5711 5712 5713 5715 5716 5718 5719 5720 5721 5722 5723 5724 5724 5724 5724 5724 5724 5723 5722 5721 5720 5719 5717 5716 5714 5712 5710 5707
5691 5692 5693 5694 5694 5695 5696 5697 5697 5698 5698 5698 5699 5700 5701 5702 5703 5704 5705 5706 5708 5709 5711 5713 5714 5715 5716 5717 5717 5718 5718 5718 5718 5718 5717 5717 5716 5714 5713 5711 5709 5707 5705 5703
5683 5684 5684 5685 5686 5687 5688 5688 5689 5689 5689 5690 5691 5692 5692 5693 5694 5696 5697 5699 5700 5702 5703 5705 5706 5708 5709 5710 5711 5711 5712 5712 5712 5712 5712 5711 5710 5709 5707 5706 5704 5702 5700 5698
5674 5675 5676 5677 5677 5678 5679 5680 5680 5681 5681 5682 5682 5683 5684 5685 5686 5687 5689 5691 5692 5694 5695 5697 5699 5700 5701 5703 5703 5704 5705 5706 5706 5706 5705 5705 5704 5703 5702 5700 5699 5697 5695 5693
5665 5666 5667 5668 5669 5669 5670 5671 5671 5672 5673 5673 5674 5675 5676 5677 5678 5680 5681 5683 5685 5686 5688 5689 5691 5692 5694 5695 5696 5697 5698 5699 5699 5699 5699 5698 5698 5697 5696 5694 5693 5691 5689 5687
5655 5657 5658 5659 5660 5660 5661 5662 5663 5664 5664 5665 5666 5667 5667 5669 5670 5672 5673 5675 5677 5679 5680 5682 5683 5685 5686 5687 5688 5689 5690 5691 5691 5692 5692 5691 5691 5690 5689 5688 5686 5685 5683 5681
5646 5647 5648 5650 5651 5651 5652 5654 5654 5655 5656 5657 5658 5659 5660 5661 5663 5664 5666 5668 5669 5671 5673 5674 5676 5677 5679 5680 5681 5682 5683 5683 5683 5684 5684 5684 5683 5683 5682 5681 5679 5678 5676 5674